[[{"header":{"parameterUnit":"m.s-1","parameterCategory":1,"la1":30.2991,"la2":30.254,"lo1":-89.0895,"lo2":-89.0444,"dy":0.0017,"dx":0.0017,"nx":28,"ny":28,"refTime":"2025-06-04T21:00:00:Z","depth":0,"parameterNumber":2,"parameterNumberName":"U-component_of_WINDS"},"data":[0,0,0,0,0,0,0,0,0,0,0,0,0,0,0,0,0,0,0,0,0,0,0,0,0,0,0,0,0,0,0,0,0,0,0,0,0,0,0,0,0,0,0,0,0,0,0,0,0,0,0,0,0,0,0,0,0,0,0.409,0.4091,0,0.4217,0.4218,0.4219,0.4273,0.4272,0.4272,0.4272,0.4402,0.4405,0.4409,0,0,0,0,0,0,0,0,0,0,0,0,0,0.3892,0.3895,0.409,0.4091,0.4093,0.4216,0.4218,0.422,0.4273,0.4272,0.4272,0.4272,0.44,0.4405,0.4409,0,0,0,0,0,0,0,0,0,0,0,0,0,0.3994,0.3896,0.4089,0.4134,0.4139,0.4216,0.4218,0.422,0.4273,0.4272,0.4272,0.4272,0.4399,0.4404,0.441,0.4451,0,0,0.4427,0.4429,0,0,0,0,0,0,0,0,0.3988,0.4001,0.4126,0.4131,0.4137,0.4228,0.4196,0.4298,0.4273,0.4222,0.4272,0.4272,0.4344,0.4354,0.4379,0.4457,0.4463,0.4427,0.443,0.4433,0.4434,0,0,0,0,0,0,0,0.3981,0.3996,0.414,0.4128,0.4135,0.4147,0.4161,0.4215,0.4284,0.4227,0.4231,0.4245,0.4347,0.4373,0.4382,0.4465,0.4427,0.4432,0.4435,0.4437,0.4582,0.4582,0,0,0,0,0,0,0.3967,0.399,0.4136,0.4144,0.406,0.4151,0.4167,0.42,0.4283,0.4296,0.4245,0.4247,0.4364,0.4376,0.4387,0.444,0.4433,0.4438,0.4441,0.4581,0.4582,0.4582,0,0,0,0,0,0,0.3962,0.3979,0.4131,0.4068,0.4088,0.4155,0.4191,0.4202,0.4228,0.4297,0.431,0.4259,0.4364,0.4379,0.4434,0.4446,0.444,0.4445,0.4581,0.4581,0.4582,0.4547,0,0,0,0,0,0,0.3956,0.3977,0.3994,0.4068,0.4091,0.4176,0.4192,0.4205,0.4238,0.4241,0.4314,0.4326,0.4365,0.4426,0.444,0.4453,0.445,0.458,0.4581,0.4582,0.4548,0.4547,0.4546,0,0,0,0,0,0.3949,0.3979,0.3995,0.4012,0.4114,0.4177,0.419,0.4235,0.4239,0.4256,0.43,0.4323,0.4442,0.4431,0.4447,0.4462,0.4579,0.4581,0.4582,0.4548,0.4547,0.4546,0,0,0,0,0,0,0.3905,0.399,0.4008,0.4063,0.4112,0.4186,0.4209,0.4233,0.4282,0.4283,0.4337,0.4353,0.4403,0.4438,0.4425,0.4506,0.4512,0.4517,0.4481,0.4481,0.448,0.4471,0.4454,0,0,0,0,0,0.3902,0.3947,0.4018,0.406,0.4084,0.4142,0.4171,0.4201,0.4254,0.4276,0.4324,0.4374,0.4423,0.4454,0.4502,0.4553,0.4569,0.4571,0.457,0.4569,0.4572,0.4601,0.4602,0.4586,0.4586,0.4586,0,0,0.3896,0.3948,0.3973,0.4052,0.4094,0.4139,0.4159,0.4206,0.4239,0.4283,0.4338,0.4374,0.4434,0.4487,0.4513,0.4518,0.458,0.4571,0.4569,0.4573,0.4602,0.4604,0.4605,0.4587,0.4587,0.4587,0,0,0.3908,0.3952,0.3991,0.4032,0.4095,0.4133,0.4142,0.4212,0.4238,0.4294,0.4327,0.4367,0.445,0.4491,0.4523,0.4548,0.4571,0.4562,0.4558,0.4585,0.4586,0.4588,0.4596,0.4599,0.4565,0.4565,0.4565,0,0.3892,0.3961,0.4008,0.4053,0.4086,0.4127,0.4167,0.4205,0.428,0.4302,0.4306,0.441,0.4453,0.4516,0.4522,0.4546,0.4558,0.4555,0.4582,0.4584,0.4586,0.4595,0.4598,0.4564,0.4564,0.4564,0.4564,0,0.3939,0.3986,0.401,0.4081,0.4118,0.4159,0.4212,0.4243,0.4269,0.4306,0.4362,0.4415,0.4475,0.4492,0.4518,0.4558,0.4559,0.4572,0.458,0.4585,0.4594,0.4598,0.4561,0.4562,0.4562,0.4563,0,0,0.3928,0.4024,0.4032,0.4064,0.4136,0.4173,0.4216,0.4274,0.4299,0.4349,0.4386,0.4454,0.4467,0.4502,0.4533,0.4557,0.4573,0.4568,0.457,0.4567,0.4619,0.4609,0.4612,0.4588,0.4589,0.459,0.4614,0,0.3949,0.4028,0.4071,0.4132,0.4176,0.4215,0.4252,0.4299,0.4335,0.4377,0.4416,0.4463,0.4476,0.4498,0.4523,0.4566,0.4584,0.4564,0.4623,0.4625,0.4607,0.4617,0.4607,0.4627,0.4618,0.4618,0.4619,0,0.3985,0.4034,0.4099,0.4165,0.4185,0.4218,0.4274,0.4313,0.4367,0.4392,0.443,0.4461,0.4507,0.451,0.4574,0.456,0.4586,0.461,0.4612,0.462,0.4622,0.4625,0.4634,0.4637,0.4625,0.4625,0.4624,0,0.397,0.4052,0.4102,0.4129,0.4207,0.4229,0.4262,0.4316,0.4347,0.4396,0.4417,0.447,0.45,0.454,0.4584,0.4582,0.4643,0.465,0.4664,0.4663,0.4676,0.4674,0.469,0.4692,0.4692,0.4692,0.4691,0,0.3989,0.4028,0.4096,0.4127,0.4171,0.4219,0.4261,0.4297,0.4344,0.4382,0.4418,0.4453,0.4508,0.455,0.4584,0.4631,0.4644,0.4665,0.4673,0.4662,0.4659,0.468,0.468,0.4692,0.4692,0.4692,0.4692,0,0.398,0.4028,0.4085,0.4153,0.4171,0.42,0.4259,0.429,0.4327,0.4374,0.4388,0.4445,0.4496,0.4543,0.461,0.4633,0.4681,0.4692,0.4662,0.4667,0.4678,0.4677,0.4708,0.4715,0.4712,0.4712,0.4712,0,0.399,0.402,0.4092,0.412,0.4153,0.4197,0.423,0.4278,0.431,0.4373,0.4396,0.4449,0.4494,0.4572,0.4619,0.4671,0.4684,0.4691,0.4692,0.4678,0.4684,0.4681,0.4684,0.469,0.469,0.469,0.469,0,0.4001,0.4023,0.4069,0.4122,0.416,0.4205,0.425,0.4271,0.4327,0.4361,0.4413,0.4448,0.4516,0.4568,0.4624,0.4658,0.4683,0.4689,0.4695,0.4683,0.4665,0.4675,0.466,0.4688,0.4688,0.4688,0.4688,0.4689,0.4002,0.4031,0.4086,0.4135,0.4174,0.4216,0.4248,0.4288,0.4332,0.4392,0.4417,0.4469,0.4521,0.4599,0.4633,0.4674,0.468,0.4688,0.469,0.4692,0.4689,0.4658,0.4684,0.4684,0.4684,0.4684,0.4685,0,0.4016,0.4052,0.4097,0.416,0.4198,0.4218,0.4269,0.43,0.4346,0.4392,0.4436,0.4494,0.4544,0.4595,0.4648,0.4671,0.4684,0.4683,0.4682,0.469,0.4681,0.4671,0.4672,0.4672,0.4672,0.4672,0.4672,0.4672,0.4027,0.4076,0.4104,0.4173,0.421,0.4261,0.4289,0.4327,0.4364,0.4428,0.447,0.4503,0.4551,0.4607,0.4654,0.4667,0.4685,0.4681,0.4698,0.469,0.469,0.4691,0.4681,0.4685,0.4685,0.4703,0.4703,0.4703]},{"header":{"parameterUnit":"m.s-1","parameterCategory":1,"la1":30.2991,"la2":30.254,"lo1":-89.0895,"lo2":-89.0444,"dy":0.0017,"dx":0.0017,"nx":28,"ny":28,"refTime":"2025-06-04T21:00:00:Z","depth":0,"parameterNumber":3,"parameterNumberName":"V-component_of_WINDS"},"data":[0,0,0,0,0,0,0,0,0,0,0,0,0,0,0,0,0,0,0,0,0,0,0,0,0,0,0,0,0,0,0,0,0,0,0,0,0,0,0,0,0,0,0,0,0,0,0,0,0,0,0,0,0,0,0,0,0,0,4.9903,4.9903,0,4.9884,4.9883,4.9883,4.9815,4.9814,4.9812,4.9811,4.9793,4.9794,4.9795,0,0,0,0,0,0,0,0,0,0,0,0,0,4.9882,4.9883,4.9903,4.9903,4.9902,4.9884,4.9883,4.9883,4.9815,4.9814,4.9812,4.981,4.9793,4.9794,4.9795,0,0,0,0,0,0,0,0,0,0,0,0,0,4.988,4.9883,4.9903,4.9866,4.9863,4.9884,4.9883,4.9883,4.9816,4.9814,4.9811,4.9809,4.9792,4.9794,4.9795,4.985,0,0,4.9799,4.98,0,0,0,0,0,0,0,0,4.988,4.9881,4.9872,4.9869,4.9865,4.9849,4.9869,4.9872,4.9816,4.9834,4.9811,4.9808,4.9814,4.9813,4.9815,4.9849,4.9849,4.98,4.98,4.9801,4.9801,0,0,0,0,0,0,0,4.988,4.9881,4.9895,4.9872,4.9868,4.9851,4.9848,4.987,4.9837,4.9832,4.9827,4.9826,4.9811,4.9814,4.9814,4.9848,4.9799,4.9801,4.9802,4.9802,4.9927,4.993,0,0,0,0,0,0,4.9886,4.9882,4.9896,4.9895,4.9867,4.9854,4.985,4.9857,4.9837,4.9831,4.9828,4.9823,4.9812,4.9812,4.9813,4.9876,4.9801,4.9802,4.9803,4.9925,4.9928,4.9931,0,0,0,0,0,0,4.9885,4.9887,4.9897,4.9887,4.9887,4.9856,4.9864,4.9858,4.986,4.9833,4.9827,4.9836,4.981,4.9811,4.9841,4.9874,4.9803,4.9804,4.9922,4.9926,4.9929,5.0003,0,0,0,0,0,0,4.9885,4.9888,4.9908,4.9888,4.9888,4.9925,4.9866,4.9859,4.9862,4.9855,4.9839,4.9834,4.9809,4.984,4.9843,4.9875,4.9805,4.9919,4.9924,4.9928,4.9997,5.0009,5.0018,0,0,0,0,0,4.9885,4.993,4.9909,4.9912,4.9912,4.9927,4.9927,4.9896,4.9865,4.9885,4.9868,4.9835,4.987,4.9843,4.9846,4.988,4.9917,4.9922,4.9928,4.9993,5.0006,5.0018,0,0,0,0,0,0,4.9956,4.9927,4.9904,4.9944,4.9938,4.9916,4.994,4.9912,4.9915,4.9909,4.987,4.9867,4.9903,4.9894,4.9865,4.9932,4.9888,4.9894,4.9936,4.9949,4.9959,4.996,4.9807,0,0,0,0,0,4.9976,4.999,4.9964,5.0002,5.0,4.9971,4.9976,4.9953,4.9946,4.9943,4.9929,4.9924,4.9933,4.9941,4.9949,4.9996,4.9991,5.002,5.0031,5.004,5.0045,5.0069,5.0082,4.9949,4.9949,4.9949,0,0,5.0018,5.0004,5.0015,5.0016,5.0009,5.0025,4.997,4.9989,5.0,4.9946,4.9974,4.9963,4.9955,4.9994,5.0011,4.9988,5.0081,5.0047,5.0054,5.0055,5.0076,5.0089,5.01,4.9952,4.9952,4.9951,0,0,5.0103,5.0094,5.0124,5.0118,5.0108,5.0088,5.0096,5.0077,5.0068,5.0094,5.0055,5.0068,5.0086,5.0082,5.0082,5.0165,5.0134,5.0169,5.0223,5.0247,5.0258,5.0267,5.0296,5.0307,5.0175,5.0175,5.0175,0,5.0157,5.0178,5.0143,5.0165,5.0166,5.0118,5.0149,5.0145,5.0138,5.0141,5.0115,5.0137,5.0128,5.0165,5.0185,5.0187,5.0195,5.017,5.0259,5.0268,5.0276,5.0303,5.0315,5.0179,5.0179,5.0178,5.0178,0,5.0244,5.026,5.0286,5.028,5.0284,5.031,5.028,5.0289,5.0265,5.0248,5.0276,5.0264,5.0269,5.0276,5.0253,5.031,5.0296,5.0266,5.022,5.0293,5.0318,5.0329,5.0185,5.0184,5.0183,5.0182,0,0,5.0373,5.0347,5.0357,5.0354,5.0339,5.0351,5.0375,5.0378,5.0386,5.0384,5.0403,5.0419,5.0391,5.0391,5.0368,5.0389,5.0455,5.0356,5.0355,5.0374,5.0517,5.0539,5.0552,5.0435,5.0437,5.0438,5.0517,0,5.0453,5.0491,5.0461,5.0505,5.0519,5.0474,5.0495,5.0489,5.0474,5.0484,5.0467,5.0479,5.0441,5.0441,5.046,5.0443,5.0483,5.0437,5.0453,5.0454,5.0455,5.0565,5.0589,5.0664,5.0527,5.0529,5.053,0,5.0551,5.0552,5.0597,5.0579,5.0584,5.0603,5.0604,5.0614,5.0606,5.0594,5.0594,5.0565,5.0588,5.0544,5.0575,5.0544,5.0549,5.0542,5.0544,5.0544,5.0496,5.0568,5.0688,5.0699,5.0545,5.0544,5.0543,0,5.0639,5.0652,5.0681,5.0679,5.0659,5.0674,5.0666,5.0656,5.066,5.0661,5.0663,5.0667,5.067,5.0674,5.0647,5.0617,5.0681,5.0635,5.0672,5.0672,5.0686,5.0686,5.0808,5.0691,5.0691,5.069,5.069,0,5.0731,5.0761,5.072,5.0738,5.077,5.0735,5.0768,5.0755,5.0747,5.0761,5.0723,5.0738,5.0702,5.0713,5.0692,5.0721,5.0722,5.0713,5.0707,5.0716,5.0717,5.0718,5.0712,5.0693,5.0693,5.0692,5.0692,0,5.0835,5.0809,5.0837,5.0816,5.0811,5.0836,5.0818,5.0833,5.0816,5.0835,5.0838,5.081,5.0822,5.0795,5.0803,5.0789,5.083,5.0816,5.0832,5.0828,5.0866,5.0862,5.0992,5.1008,5.0881,5.0882,5.0883,0,5.0896,5.0917,5.0898,5.0905,5.0899,5.0911,5.0914,5.0881,5.0887,5.0879,5.0896,5.0904,5.0909,5.0929,5.091,5.0916,5.0902,5.0947,5.0902,5.0911,5.0902,5.0901,5.0902,5.0956,5.0958,5.0959,5.096,0,5.1005,5.0991,5.0997,5.0999,5.1005,5.1005,5.1002,5.101,5.0975,5.0984,5.0994,5.0998,5.1005,5.1014,5.1015,5.1008,5.0979,5.0974,5.0983,5.0992,5.1,5.0996,5.0857,5.0971,5.097,5.0969,5.0969,5.0968,5.1088,5.1105,5.1094,5.1103,5.1097,5.1096,5.1109,5.1093,5.1101,5.1104,5.1085,5.11,5.1091,5.109,5.1086,5.1098,5.1077,5.109,5.1093,5.1097,5.1102,5.0999,5.1098,5.1098,5.1097,5.1097,5.1097,0,5.1195,5.1186,5.1194,5.1191,5.1198,5.1169,5.1165,5.1173,5.1186,5.118,5.1185,5.1198,5.1206,5.1188,5.1193,5.1206,5.1193,5.1209,5.1207,5.1206,5.1121,5.1112,5.122,5.122,5.1219,5.1219,5.1219,5.1219,5.1252,5.1279,5.1263,5.1287,5.1278,5.1291,5.1291,5.129,5.1285,5.13,5.1307,5.1295,5.1284,5.1288,5.1295,5.1289,5.1293,5.1314,5.1304,5.1224,5.1212,5.1201,5.1193,5.1315,5.1315,5.1388,5.1389,5.1389]}]]